Regional Weather Roundup
Issued by NWS

Home | Current Version | Previous Version | Text Only | Print | Product List | Glossary Off
Versions: 1 2 3 4 5 6 7 8 9 10 11 12 13 14 15 16 17 18 19 20 21 22 23 24 25 26 27 28 29 30 31 32 33 34 35 36 37 38 39 40 41 42 43 44 45 46 47 48 49 50

000
ASUS45 KSLC 281710
RWRUT

UTAH REGIONAL WEATHER ROUNDUP
NATIONAL WEATHER SERVICE SALT LAKE CITY UT
1100 AM MDT TUE APR 28 2015

UTZ001>011-023>025-281800-

NORTHERN UTAH

CITY           SKY/WX    TMP DP  RH WIND       PRES   REMARKS
BRIGHAM CITY   SUNNY     57  37  46 CALM      30.25F
DUGWAY         MOSUNNY   60  33  35 NW2       30.25S
HILL AFB       SUNNY     61  37  41 VRB5      30.25S
LOGAN          SUNNY     55  38  52 NW7       30.25S
OGDEN          SUNNY     61  35  37 CALM      30.24S
PROVO AIRPORT  SUNNY     55  39  54 VRB5      30.26S
SALT LAKE CITY MOSUNNY   60  40  47 NW6       30.23F
VERNAL         SUNNY     55  34  45 SE3       30.30F
WENDOVER       SUNNY     59  27  29 SE7       30.24S
HEBER CITY     SUNNY     54  36  50 CALM      30.27F
WEST JORDAN    SUNNY     63  41  45 S6        30.25S

$$

UTZ012>022-026-027-281800-

SOUTHERN/CENTRAL UTAH

CITY           SKY/WX    TMP DP  RH WIND       PRES   REMARKS
BLANDING       PTSUNNY   56  40  53 S7        30.35S
BRYCE CANYON   SUNNY     54  29  38 MISG      30.32F
CEDAR CITY     SUNNY     56  35  45 SW3       30.24F
DELTA          SUNNY     57  39  51 CALM      30.25S
HANKSVILLE     SUNNY     63  34  34 CALM      30.26F
MILFORD        SUNNY     60  34  37 VRB6      30.24F
MOAB/CYNLANDS  SUNNY     63  36  36 W5        30.23S
PRICE          NOT AVBL
ST GEORGE      SUNNY     66  37  34 CALM      30.17F
KANAB          SUNNY     64  34  32 NE10      30.26F

$$

REGIONAL REPORTS     COLORADO/ARIZONA

CITY           SKY/WX    TMP DP  RH WIND       PRES   REMARKS
CRAIG, CO      CLOUDY    47  38  71 CALM      30.33F
GRAND JUNCTION SUNNY     59  40  49 S8        30.24F
RIFLE          SUNNY     56  36  47 CALM      30.27F
MONTROSE       SUNNY     58  33  39 NW7       30.28F
CORTEZ         PTSUNNY   58  36  43 MISG      30.29S
PAGE, AZ       NOT AVBL
GRAND CANYON   SUNNY     59  32  36 NE13      30.29S
KINGMAN        SUNNY     76  32  20 NE12G17   30.12F
FLAGSTAFF      SUNNY     57  34  41 E7        30.28S

$$

REGIONAL REPORTS    NEVADA/IDAHO/WYOMING

CITY           SKY/WX    TMP DP  RH WIND       PRES   REMARKS
LAS VEGAS, NV  SUNNY     75  29  18 CALM      30.07S
ELY            SUNNY     53  19  26 CALM      30.27F
ELKO           SUNNY     58  25  28 NE7       30.22F
POCATELLO, ID  SUNNY     60  33  36 NE5       30.25F
BURLEY         SUNNY     58  34  40 E7        30.21F
EVANSTON, WY   SUNNY     51  33  50 E8        30.32F
ROCK SPRINGS   SUNNY     45  35  68 SE6       30.33F
KEMMERER       SUNNY     50  34  53 E5        30.35S

$$


USA.gov is the U.S. government's official web portal to all federal, state and local government web resources and services.